Погода в Сарагте

Погода в Сарагте : погода сейчас, прогноз погоды и архив. Всё, что Вы хотите узнать о погоде в Сарагте!

Поиск расширенной информации на нашем сайте:

Полезная информация: Получить визу в великобританию. Можно ли узнать получил визу в великобританию или нет.

Другие новости

Новости СМИ2

Главная страница сайта

Новости сайта

03.07.2017

Напоминаем, что на нашем специализированном сайте Метеоцентр.Азия вы можете получить высокодетализированные автоматические прогнозы погоды по пунктам России, СНГ и мира в авиационном формате (включающие направление и скорость ветра, видимость, явления погоды, количество и форму облачности, нижнюю и верхнюю границу облачности).

Рекомендуем: Клееный брус строительство под ключ дома из клееного бруса под ключ.

Погода в Сарагте - сегодня

Время (UTC), дата Ветер
(°,м/с) 
Видим.   Явления Облачность Т
(°С)
Тd
(°С)
f(%) Тe
(°С)
Pmin
(гПа)
dP
(гПа)
Po
(мм)
O2
(г/м3)
Тmin Tmax R s Состояние
почвы
09 17.02.18 140 (ЮВ) 20000 м    10/0 верхняя 
[Cs]
+10.2 +1.1 53 +11  1027.4  -3.1  745  289           
12 17.02.18 110 (В) 20000 м    10/0 средняя, верхняя 
[Ac trans|Cs]
+11.6 +0.2 45 +13  1024.2  743  287           
15 17.02.18 140 (ЮВ) 20000 м    10/0 средняя, верхняя 
[Ac As|Cs]
+9.9 +1.3 55 +11  1024.3  743  289    +12.5       
18 17.02.18 090 (В) 20000 м    8/0 средняя 
[Ac cuf]
+8.1 +4.5 78 +8  1023.9  -0.5  743  290    +12.5       
21 17.02.18 тихо ()   20000 м    10/0 средняя, верхняя 
[Ac As|Cs]
+6.7 +3.4 79 +7  1023.5  -0.5  742  291           
00 18.02.18 340 (С) 20000 м    10/0 средняя, верхняя 
[Ac As|Cs]
+6 +2.9 80 +7  1022.7  -1  742  292           
03 18.02.18 340 (С) 20000 м    10/0 средняя, верхняя 
[Ac und|Cs]
+5.2 +2.5 83 +6  1022.8  742  293           
06 18.02.18 050 (СВ) 20000 м    8/0 средняя, верхняя 
[Ac As|Cs]
+9.1 +2.7 64 +10  1022.1  -0.2  742  289  +5.1         
09 18.02.18 110 (В) 20000 м    10/0 средняя, верхняя 
[Ac As|Cs]
+14 +2.1 44 +15  1019.2  -2.5  740  283           
12 18.02.18 050 (СВ) 20000 м    10/0 средняя, верхняя 
[Ac As|Cs]
+15 +1.5 40 +16  1015.4  -3.3  737  281           
15 18.02.18 140 (ЮВ) 20000 м    ясно 
+11.8 +4 59 +13  1015.2  -0.5  737  284    +11.8      мокрая 
18 18.02.18 тихо ()   20000 м    10/0 средняя, верхняя 
[Ac As|Cs]
+12.2 +3.4 55 +12  1013.6  -1.5  736  283           
21 18.02.18 тихо ()   20000 м    10/0 средняя, верхняя 
[Ac As|Cs]
+9.9 +2.1 58 +10  1011.2  -2.6  734  285           
00 19.02.18 160 (Ю) 20000 м    10/0 средняя, верхняя 
[Ac As|Cs]
+9.8 +3.6 65 +11  1009.1  -2.1  732  284           
03 19.02.18 160 (Ю) 20000 м    10/0 средняя, верхняя 
[Ac As|Cs]
+10.1 +4 66 +11  1008.7  -0.4  731  283           
06 19.02.18 340 (С) 20000 м    10/0 средняя, верхняя 
[Ac cuf|Cs]
+9.8 +3 63 +9  1010.8  2.1  733  285  +9.7         
09 19.02.18 320 (СЗ) 9-13  10 км    10/0 средняя, верхняя 
[Ac As|Cs]
+12.5 +0.9 45 +11  1012  1.4  734  283           
12 19.02.18 320 (СЗ) 6{09}  20000 м    10/0 средняя, верхняя 
[Ac As|Cs]
+11.6 +1.1 48 +10  1013  0.8  735  284           
15 19.02.18 320 (СЗ) 20000 м  зарница  8/4 600 м кучево-дожд., средняя 
[Cb cap|Ac cuf]
+9.4 +4 69 +7  1019.5  6.1  740  287    +13.2       
18 19.02.18 340 (С) 20000 м    10/0 средняя, верхняя 
[Ac cuf|Cs]
+8.4 +5 79 +8  1016.1  -3.4  737  287    +13.2       
21 19.02.18 340 (С) 10 км  слаб. ливневой дождь  10/9 400 м кучево-дожд., средняя, верхняя 
[Cb cap|Ac As|Cs]
+7.7 +5 83 +7  1015.5  -0.6  737  288           
00 20.02.18 320 (СЗ) 10 км  слаб. ливневой дождь  10/9 480 м кучево-дожд., средняя, верхняя 
[Cb cap|Ac cuf|Cs]
+7.2 +6.4 95 +8  1017.3  1.7  738  289           
03 20.02.18 тихо ()   20000 м    ясно 
-1.8 -5.1 78 -2  1030.9  0.5  747  304  -1.9        сухая 
06 20.02.18 290 (З) 20000 м    10/0 средняя 
[Ac As]
+5.2 -0.4 67 +6  1031  2.2  748  296  +2.9         
12 20.02.18 290 (З) 20000 м  {дождь}  10/8 600 м средняя 
[Frnb|As trans]
+10 +6.8 80 +11  1020.2  -0.4  740  287           
Время (UTC), дата Ветер
(°,м/с) 
Видим.   Явления Облачность Т
(°С)
Тd
(°С)
f(%) Тe
(°С)
Pmin
(гПа)
dP
(гПа)
Po
(мм)
O2
(г/м3)
Тmin Tmax R s Состояние
почвы

Для получения пояснительной информации подведите курсор к названию столбца.

ПОГОДА в Сарагте - архив

Всё, что Вы хотите узнать о погоде в Сарагте - удобно и подробно!

Выберите нужную дату (начиная с 1 января 2015* года) и нажмите кнопку "Найти".
Будут отображены архивные сводки погоды по пункту Сарагт, начиная с указанной даты.


Отображать данные в формате CSV (для использования в таблицах Excel)


Внимание! Наш архив погоды предназначен исключительно для личного некоммерческого использования в познавательных целях. Если Вам необходимы официальные справки о состоянии погоды (для производственных, юридических, коммерческих и т.п. целей), обращайтесь в органы Росгидромета.

*Примечание: данная дата относится к архиву по метеостанциям СССР (Россия, СНГ, Балтия).
Архив по метеостанциям Зарубежной Европы и Азии (кроме Китая) хранится 10 дней, по другим регионам земного шара (Китай, Африка, Америка, Австралия, Океания) - 1 день.

Сарагт - район местоположения метеостанции


Название, широта, долгота, высота метеостанции:
Сарагт 36.5°ш. 61.2°д. 275 м над ур. моря [Туркменистан]

Дополнительная информация

В oтличие oт бoльшинства пoгoдных сайтoв мы публикуем пoдрoбную метеoинфoрмацию в детальнoм прoфессиoнальнoм фoрмате.

Характеристики температуры и влажнoсти вoздуха измеряются на высoте 2 м в тени вдали oт зданий и деревьев.
Скoрoсть ветра измеряется на высoте 10 м (на урoвне рoста челoвека скoрoсть ветра ниже в 1.5-2 раза). Если метеoстанция нахoдится в гoрoде или в лесу, тo скoрoсть ветра занижена на 2-4 м/с пo сравнению с oткрытым местoм. Скoрoсть ветра над акватoриями крупных рек и oзёр, а также на вершинах хoлмoв на 2-5 м/с выше, чем в oбычных услoвиях.
Атмoсфернoе давление в разных тoчках местнoсти мoжет значительнo oтличаться oт давления на метеoстанции, в зависимoсти oт услoвий рельефа (при пoдъёме на 10 м давление пoнижается примернo на 1 мм рт.ст.).